Regional Weather Roundup
Issued by NWS

Home | Current Version | Previous Version | Graphics & Text | Print | Product List | Glossary On
Versions: 1 2 3 4 5 6 7 8 9 10 11 12 13 14 15 16 17 18 19 20 21 22 23 24 25 26 27 28 29 30 31 32 33 34 35 36 37 38 39 40 41 42 43 44 45 46 47 48 49 50
696
ASUS45 KTFX 251510
RWRMT
MONTANA REGIONAL WEATHER ROUNDUP
NATIONAL WEATHER SERVICE GREAT FALLS MT
900 AM MDT TUE JUL 25 2017

NOTE: "FAIR" INDICATES FEW OR NO CLOUDS BELOW 12000 FEET WITH NO
SIGNIFICANT WEATHER AND/OR OBSTRUCTIONS TO VISIBILITY.

MTZ001>007-043-251600-
WEST OF THE DIVIDE

CITY           SKY/WX    TMP DP  RH WIND       PRES   REMARKS
KALISPELL      SUNNY     63  44  50 E6        30.06R
MISSOULA       SUNNY     64  35  34 W6        30.08R
BUTTE          MOSUNNY   60  36  40 N3        30.19S
MULLAN PASS    SUNNY     62  31  31 NW3       30.18R
ANACONDA         N/A     59  37  44 CALM      30.17R
DEER LODGE       N/A     61  36  39 NW6       30.18R
EUREKA           N/A     64  39  39 MISG      30.09S
HAMILTON         N/A     59  43  55 CALM      30.09S
LIBBY            N/A     61  36  39 CALM      30.06S
PLAINS           N/A     61  39  44 CALM      30.06R
THOMPSON FALLS   N/A     62  40  44 CALM      30.10R
$$

MTZ008-052>055-251600-
SOUTHWEST MONTANA

CITY           SKY/WX    TMP DP  RH WIND       PRES   REMARKS
BOZEMAN        CLOUDY    64  43  46 SW6       30.15R
DILLON         CLOUDY    61  43  51 NE10      30.15R
W YELLOWSTONE  CLOUDY    52  46  82 CALM      30.25S
ENNIS          SUNNY     61  39  44 MISG      30.23R
THREE FORKS      N/A     66  40  38 CALM      30.12S
TWIN BRIDGES     N/A     62  37  39 N12       30.11R
$$

MTZ009-010-012-014-046-048-049-054-251600-
EAST SLOPES AND CENTRAL MONTANA

CITY           SKY/WX    TMP DP  RH WIND       PRES   REMARKS
CUT BANK       SUNNY     60  41  49 CALM      30.17S
GREAT FALLS    MOSUNNY   60  38  43 NE5       30.18S
HELENA         CLOUDY    63  39  41 W9        30.17R
CHOTEAU          N/A     61  39  44 CALM      30.19F
CONRAD           N/A     61  47  59 W1        30.18R
$$

MTZ011-013-016-021-045-047-050-051-251600-
NORTH CENTRAL MONTANA

CITY           SKY/WX    TMP DP  RH WIND       PRES   REMARKS
HAVRE          SUNNY     63  42  46 NW9       30.14S
LEWISTOWN      MOSUNNY   62  38  40 W5        30.17S
N BAR RANCH      N/A     66  36  32 NW5       30.20S
CHINOOK          N/A     63  43  48 W8        30.13R
$$

MTZ017>020-022>027-061-062-251600-
NORTHEAST MONTANA

CITY           SKY/WX    TMP DP  RH WIND       PRES   REMARKS
GLASGOW        SUNNY     64  45  49 NW14      30.07R
JORDAN           N/A     68  42  38 N9        30.10R
SIDNEY         SUNNY     71  45  39 N15       30.02S
WOLF POINT     SUNNY     72  45  37 NW10      30.05R
MALTA          MOSUNNY   66  41  39 NW6       30.10S
PLENTYWOOD       N/A     64  48  55 NW18      30.01R
POPLAR           N/A     66  46  48 N7        30.04R
SCOBEY           N/A     65  44  46 NW13      30.03S
$$

MTZ028>42-056>058-251600-
SOUTHCENTRAL AND SOUTHEAST MONTANA

CITY           SKY/WX    TMP DP  RH WIND       PRES   REMARKS
BAKER          MOSUNNY   74  40  29 NE22G31   30.04R
BILLINGS       CLOUDY    66  36  32 NE9       30.15R
LIVINGSTON     CLOUDY    63  38  39 E16       30.18R
MILES CITY     MOSUNNY   73  37  27 NE15      30.05R
BIG TIMBER     SUNNY     63  37  39 E9        30.23R
FORSYTH          N/A     72  39  30 N10G16    30.06F
LAUREL           N/A     66  36  33 N5        30.13F
ROUNDUP          N/A     63  34  33 N7        30.06R
$$

REGIONAL REPORTS...DAKOTAS

CITY           SKY/WX    TMP DP  RH WIND       PRES   REMARKS
WILLISTON      MOSUNNY   72  47  40 N14       30.01R
MINOT          SUNNY     72  47  40 NW20G26   29.95R
DICKINSON      MOSUNNY   74  45  35 N16G24    29.98F
BEACH            N/A     70  37  30 N13G18    30.07S
CROSBY           N/A     66  48  52 NW17      29.99S
TIOGA            N/A     68  48  49 NW14G21   30.01R
WATFORD CITY     N/A     70  45  40 NW8       30.01S
BISMARCK       CLOUDY    73  67  81 N12       29.92F
GRAND FORKS    CLOUDY    71  67  87 S12       29.86R
BUFFALO SD       N/A     73  57  57 N18       29.93R
RAPID CITY     MOSUNNY   81  58  45 N14G20    29.96S
$$

REGIONAL REPORTS...WYOMING/IDAHO/WASHINGTON

CITY           SKY/WX    TMP DP  RH WIND       PRES   REMARKS
GILLETTE       MOSUNNY   78  51  38 N16       30.05R
SHERIDAN       CLOUDY    71  45  39 NW18G28   30.10R
BUFFALO WY     MOSUNNY   76  48  37 N13       30.12R
CODY           MOSUNNY   65  46  50 N14G23    30.17R
YELLOWSTONE LA   N/A     53  48  83 CALM      30.33S
IDAHO FALLS    CLOUDY    69  52  54 SW9       30.10S
BOISE          CLOUDY    74  48  39 SW5       29.98R
SPOKANE        MOSUNNY   67  41  38 E7        30.04R
$$

REGIONAL REPORTS...ALBERTA

CITY           SKY/WX    TMP DP  RH WIND       PRES   REMARKS
EDMONTON       MOSUNNY   59  52  77 W5        30.04R
CALGARY        MOSUNNY   59  43  55 SW7       30.14R
LETHBRIDGE     SUNNY     61  45  55 SW8       30.14S
$$

REGIONAL REPORTS...SASKATCHEWAN

CITY           SKY/WX    TMP DP  RH WIND       PRES   REMARKS
SWIFT CURRENT  SUNNY     61  48  63 W16G23    30.05R
REGINA         PTSUNNY   63  52  67 W20G26    29.96R
SASKATOON      PTSUNNY   63  55  77 W25G31    29.91R
CYPRESS HILLS    N/A     54  43  66 NW9G17      N/A
VAL MARIE        N/A     64  43  45 NW12        N/A
ROCKGLEN         N/A     63  46  55 NW15G25     N/A
$$




USA.gov is the U.S. government's official web portal to all federal, state and local government web resources and services.